Regional Weather Roundup
Issued by NWS

Home | Current Version | Previous Version | Text Only | Print | Product List | Glossary On
Versions: 1 2 3 4 5 6 7 8 9 10 11 12 13 14 15 16 17 18 19 20 21 22 23 24 25 26 27 28 29 30 31 32 33 34 35 36 37 38 39 40 41 42 43 44 45 46 47 48 49 50
000
ASUS43 KDMX 220707
RWRIA

WEATHER ROUNDUP FOR IOWA
NATIONAL WEATHER SERVICE DES MOINES IA
100 AM CST SAT NOV 22 2014

NOTE: "FAIR" INDICATES FEW OR NO CLOUDS BELOW 12,000 FEET WITH NO
SIGNIFICANT WEATHER AND/OR OBSTRUCTIONS TO VISIBILITY.

* - THESE STATIONS ARE NOT NWS STATIONS...THUS NOT UNDER NWS
QUALITY CONTROL.  THEY ALSO DO NOT REPORT WEATHER SUCH
AS PRECIPITATION OR FOG.

IAZ001>003-012>014-020>022-031>034-043>046-220800-
   NORTHWEST IOWA

CITY           SKY/WX    TMP DP  RH WIND       PRES   REMARKS
CARROLL *      CLOUDY    36  36 100 SW6       29.96S FOG     WCI  31
CHEROKEE *     CLOUDY    36  36 100 S8        29.91F FOG     WCI  29
DENISON *      FOG       36  36 100 SW12      29.93F VSB 1/4 WCI  27
LE MARS *      CLOUDY    36  34  93 S13       29.89F FOG     WCI  27
ORANGE CITY *  CLOUDY    36  34  93 S14       29.87F FOG     WCI  27
SHELDON *      CLOUDY    36  34  93 S18       29.86F FOG     WCI  25
SIOUX CITY     CLOUDY    38  34  85 S7        29.92F FOG     WCI  33
SPENCER        CLOUDY    35  33  92 S10       29.89F FOG     WCI  27
STORM LAKE *   FOG       34  34 100 SW16      29.92F VSB 1/4 WCI  23
$$

IAZ055>058-069>071-079>083-090>094-220800-
   SOUTHWEST IOWA

CITY           SKY/WX    TMP DP  RH WIND       PRES   REMARKS
ATLANTIC *     CLOUDY    36  36 100 S10       29.97S FOG     WCI  28
AUDUBON *      CLOUDY    36  30  80 SW9       29.97S HAZE    WCI  29
CLARINDA *     CLOUDY    37  37 100 S8        30.01F FOG     WCI  31
COUNCIL BLFS * CLOUDY    36  36 100 SW9       29.95F FOG     WCI  29
CRESTON *      CLOUDY    36  36 100 S12       29.99F FOG     WCI  27
HARLAN  *      CLOUDY    36  36 100 SW12      30.00S FOG     WCI  27
LAMONI         CLOUDY    36  33  89 S7        30.00F WCI  30
RED OAK *      CLOUDY    37  37 100 S9        29.99S FOG     WCI  31
SHENANDOAH *   CLOUDY    37  37 100 S5        30.00F FOG     WCI  34
$$

IAZ047>049-059>061-072>074-084-220800-
   CENTRAL IOWA

CITY           SKY/WX    TMP DP  RH WIND       PRES   REMARKS
AMES           CLOUDY    36  31  82 S12       29.98F WCI  28
ANKENY *       CLOUDY    37  32  81 S10       29.99F WCI  30
CHARITON *     CLOUDY    37  34  87 S8        30.01F WCI  31
DES MOINES     CLOUDY    39  32  76 S13       29.99F WCI  31
GRINNELL*      CLOUDY    34  30  86 S12       30.01F WCI  25
KNOXVILLE *    CLOUDY    37  34  87 S8        30.00F WCI  31
MARSHALLTOWN   CLOUDY    34  29  82 S12       29.98F WCI  25
PELLA *        CLOUDY    36  32  87 S6        30.03F WCI  31
PERRY *        CLOUDY    37  36  93 S9        29.97S FOG     WCI  31
$$

IAZ004>006-015-016-023>025-035-036-220800-
   NORTH CENTRAL IOWA

CITY           SKY/WX    TMP DP  RH WIND       PRES   REMARKS
ALGONA *       CLOUDY    34  34 100 S22G28    29.91F FOG     WCI  22
CLARION *        N/A     34  34 100 S15       29.95F FOG     WCI  24
ESTHERVILLE    CLOUDY    34  33  96 SW16      29.87F FOG     WCI  24
FORT DODGE *   CLOUDY    34  30  86 S12       29.96F WCI  25
MASON CITY     CLOUDY    34  31  88 S12       29.96F WCI  25
FOREST CITY *  CLOUDY    34  34 100 S14       29.93F FOG     WCI  24
IOWA FALLS *   CLOUDY    34  30  86 S8        29.99S WCI  27
$$

IAZ007>011-017>019-026>030-037>042-050>054-066-220800-
   NORTHEAST IOWA

CITY           SKY/WX    TMP DP  RH WIND       PRES   REMARKS
CEDAR RAPIDS   CLOUDY    32  30  92 S10       30.04F WCI  24
CHARLES CITY * CLOUDY    32  28  86 S15       29.98F WCI  22
CLINTON *      CLOUDY    32  27  80 S6        30.11F WCI  26
DECORAH *      CLOUDY    32  27  80 S10G18    29.98S WCI  24
DUBUQUE        MIX PCPN  31  29  92 S17       30.03F FOG     WCI  19
MONTICELLO *   CLOUDY    32  30  93 S9G15     30.05F WCI  24
OELWEIN *      CLOUDY    32  28  86 S15       30.01F WCI  22
WATERLOO       CLOUDY    33  28  81 S13       30.00F WCI  24
$$

IAZ064-065-067-068-078-220800-
   EAST CENTRAL IOWA

CITY           SKY/WX    TMP DP  RH WIND       PRES   REMARKS
DAVENPORT      HVY RAIN  33  29  85 S13       30.08F FOG     WCI  24
IOWA CITY      CLOUDY    33  31  92 S7        30.08F WCI  27
MT. PLEASANT * CLOUDY    36  32  87 S14       30.07F WCI  27
MUSCATINE *    LGT RAIN  36  32  87 SE6       30.08F WCI  31
QUAD CITIES    LGT RAIN  34  30  85 SW5       30.09F FOG     WCI  30
$$

IAZ062-063-075>077-085>089-095>099-220800-
   SOUTHEAST IOWA

CITY           SKY/WX    TMP DP  RH WIND       PRES   REMARKS
BURLINGTON     CLOUDY    37  30  75 S12       30.08F WCI  29
FAIRFIELD *    CLOUDY    36  32  87 S8        30.05F WCI  29
FORT MADISON * CLOUDY    39  32  75 S13       30.08F WCI  32
KEOKUK *       CLOUDY    41  32  70 S10       30.08F
OSKALOOSA *    CLOUDY    34  32  93 S6        30.04F FOG     WCI  29
CENTERVILLE *  CLOUDY    37  37 100 S5        30.04F WCI  34
OTTUMWA        CLOUDY    34  31  88 S10       30.03F WCI  26
WASHINGTON *   CLOUDY    36  36 100 S9        30.06F WCI  29
$$

ABBREVIATIONS USED IN REMARKS
   TC - TEMPERATURES IN CELSIUS
  WCI - WIND CHILL INDEX
   HX - HEAT INDEX
  VSB - VISIBILITY
$$




USA.gov is the U.S. government's official web portal to all federal, state and local government web resources and services.